Regional Weather Roundup
Issued by NWS Upton, NY

Current Version | Previous Version | Text Only | Print | Product List | Glossary On
Versions: 1 2 3 4 5 6 7 8 9 10 11 12 13 14 15 16 17 18 19 20 21 22 23 24 25 26 27
000
ASUS41 KOKX 212010
RWROKX

Regional Weather Roundup
National Weather Service New York NY
300 PM EST SUN JAN 21 2018

Note: "FAIR" indicates few or no clouds below 12,000 feet with no
significant weather and/or obstructions to visibility.

NYZ071-072-176-178-NJZ106-104-212100-
New York City Metro Area

CITY           SKY/WX    TMP DP  RH WIND       PRES   REMARKS
Central Park   FAIR      50  29  44 VRB3      30.15S
Bronx Bot Gard   N/A     50  30  46 NW2       30.15S
Bronx Lehman C   N/A     48  30  49 W5          N/A
LaGuardia Arpt PTSUNNY   52  29  41 NW3       30.13S
Queens College   N/A     50  30  46 NW2         N/A
Kennedy Intl   PTSUNNY   50  31  48 SW8       30.15S
Breezy Point     N/A     48 N/A N/A W3          N/A
Brooklyn Coll    N/A     52  32  46 W3          N/A
Staten Island    N/A     52  32  46 NW6         N/A
Newark/Liberty PTSUNNY   53  30  41 SW8       30.13S
Teterboro      FAIR      51  30  44 VRB7      30.13S
$$

NYZ177-179-078>081-212100-
Long Island New York

CITY           SKY/WX    TMP DP  RH WIND       PRES   REMARKS
Jones Beach      N/A     46 N/A N/A SW6         N/A
Wantagh          N/A     50  30  46 W3          N/A
Matinecock Pt    N/A     45 N/A N/A SE2         N/A
Farmingdale    FAIR      49  29  46 N8        30.14S
MacArthur/ISP  CLOUDY    50  30  46 NW5       30.13S
Shirley        FAIR      47  32  56 S6        30.15R
Mt Sinai Harb    N/A    N/A N/A N/A W3          N/A
Westhampton    FAIR      48  28  46 N6        30.15S
East Hampton   FAIR      46  29  53 CALM      30.14R
Southold         N/A     43  30  61 W3          N/A
Montauk          N/A     45  31  58 W5        30.15R
$$

NYZ052-065-067-212100-
Hudson Valley

CITY           SKY/WX    TMP DP  RH WIND       PRES   REMARKS
White Plains   FAIR      46  29  51 NW3       30.11F
Larchmont Harb   N/A     41 N/A N/A E8          N/A
Croton On Huds   N/A     43 N/A N/A MISG        N/A
Somers           N/A     45  30  57 W1          N/A
Brewster         N/A     45  28  53 S1          N/A
Newburgh       MOSUNNY   46  32  57 CALM      30.12F
Montgomery     FAIR      46  31  55 S3        30.10F
Otisville        N/A     46  30  53 SW2         N/A
Warwick          N/A     46  30  53 W5          N/A
Suffern          N/A     46  30  53 W2          N/A
Poughkeepsie   FAIR      47  28  47 CALM      30.12F
Albany         CLOUDY    41  29  62 NW3       30.14F
$$

NJZ001-105-106-008-010-013-015-019>022-104-212100-
New Jersey

CITY           SKY/WX    TMP DP  RH WIND       PRES   REMARKS
Newark/Liberty PTSUNNY   53  30  41 SW8       30.13S
Teterboro      FAIR      51  30  44 VRB7      30.13S
Caldwell       FAIR      49  30  48 CALM      30.14R
Somerville     CLOUDY    50  35  56 CALM      30.12S
Linden         FAIR      52  32  45 NW8       30.13S
Perth Amboy      N/A     50 N/A N/A W10         N/A
Sussex         PTSUNNY   47  30  51 S5        30.12S
Andover        NOT AVBL
Trenton        CLOUDY    51  36  56 SW7       30.14S
Millville      CLOUDY    52  39  61 S5        30.16S
Atlantic City  NOT AVBL
Wrightstown    CLOUDY    51  36  57 W6        30.12S
Toms River     CLOUDY    52  37  56 W10       30.15S
Belmar         FAIR      51  35  54 W9        30.15
$$

PAZ047>061-062-071-212100-
Eastern Pennsylvania

CITY           SKY/WX    TMP DP  RH WIND       PRES   REMARKS
Philadelphia   CLOUDY    52  37  56 SW7       30.16S
Allentown      CLOUDY    50  37  61 SW5       30.13S
Scranton       CLOUDY    41  31  67 CALM      30.11S
$$

CTZ002-004>006-009-010-012-RIZ004-006-007-MAZ004-011-015-212100-
Southern New England

 In CT

CITY           SKY/WX    TMP DP  RH WIND       PRES   REMARKS
Bradley Intl   PTSUNNY   48  30  49 CALM      30.12R
Hartford       FAIR      48  31  51 CALM      30.12S
Danbury        FAIR      46  31  55 SW8       30.13S
Wtrbury/Oxford FAIR      46  31  55 VRB3      30.11F
Norwalk Harbor   N/A     41 N/A N/A S7          N/A
Bridgeport     FAIR      42  30  62 S9        30.14S
Meriden        FAIR      49  31  49 CALM      30.12S
New Haven      FAIR      42  30  62 SW6       30.14R
Chester        FAIR      50  30  46 W3        30.11S
Groton         FAIR      44  31  60 SW8       30.12S
Willimantic    FAIR      48  31  51 MISG      30.12S

 In RI

CITY           SKY/WX    TMP DP  RH WIND       PRES   REMARKS
Providence     PTSUNNY   50  31  48 W5        30.12S
Block Island   FAIR      43  32  65 W6        30.14R
Westerly       FAIR      45  33  63 SW7       30.13R

In MA

CITY           SKY/WX    TMP DP  RH WIND       PRES   REMARKS
Boston         CLOUDY    49  29  46 SW6       30.11S
Worcester      FAIR      43  27  53 W8        30.09R
Westfield      FAIR      46  31  55 W8        30.11S
Provincetown   FAIR      44  34  67 NW7       30.13R
Nantucket      FAIR      47  31  53 N7        30.13R
$$

ANZ330-335-338-340-345-350-353-355-212100-
Coastal Marine Observations


STATION/POSITION TIME  SKY/WX   TEMP    WIND        PRES    VSBY  WAVE
                                AIR SEA DIR/SP/G                  HT/PER
                 (UTC)          (F)     (DEG/KT/KT) (MB)    (MI)  (FT/S)
NY Harb Entrance 1850            43 40  330/  4/  4 1020.5          2/ 7
20 S Fire Island 1950            42 42  310/  4/  4 1021.1          3/ 7
15 E Barnegat Li 1930               43                N/A           3/ 7
Hudson Canyon    1950            47 49  330/  8/ 10 1020.9          3/ 7
Kings Point      1948            49 33   60/  2/  3 1021.3
Execution Rocks  NOT AVBL
Western LI Sound NOT AVBL
Central LI Sound NOT AVBL
Robbins Reef     1948            47     140/  1/  2 1021.0
$$


>>>>>>>>>>>>>>>>>>>>>>>>>>>> KEY <<<<<<<<<<<<<<<<<<<<<<<<<<<
>                                                          <
>     SKY/WX - Sky Condition/Present Weather               <
>     TMP    - Temperature in Fahrenheit                   <
>     DP     - Dew Point in Fahrenheit                     <
>     RH     - Relative Humidity in Percent                <
>     WIND   - Direction (from) and Speed in MPH           <
>     PRES   - Mean Sea Level Pressure (inches of Hg)      <
>     WCI    - Wind Chill Index                            <
>     VSB    - Visibility in Miles                         <
>     HX     - Heat Index                                  <
>     TC     - Temperature in Celsius                      <
>     VRB    - Varibale Wind Direction                     <
>                                                          <
>>>>>>>>>>>>>>>>>>>>>>>>>>>> KEY <<<<<<<<<<<<<<<<<<<<<<<<<<<




USA.gov is the U.S. government's official web portal to all federal, state and local government web resources and services.